| time (UTC) | temp C | wind direction | speed KPH | gust KPH | rain 1hr cm | rain 24hr cm | rain mn cm | humidity % | barometer mb |
| 20260505123004 | 18 | 202 | 4.8 | 12.9 | 0.00 | 0.00 | 0.00 | 75 | 1006.7 |
| 20260505122004 | 18 | 227 | 3.2 | 9.7 | 0.00 | 0.00 | 0.00 | 73 | 1006.8 |
| 20260505121004 | 18 | 207 | 4.8 | 14.5 | 0.00 | 0.00 | 0.00 | 73 | 1006.7 |
| 20260505120002 | 18 | 223 | 6.4 | 12.9 | 0.00 | 0.00 | 0.00 | 74 | 1006.5 |
| 20260505115002 | 17 | 235 | 3.2 | 19.3 | 0.00 | 0.00 | 0.00 | 75 | 1006.4 |
| 20260505114002 | 17 | 213 | 4.8 | 14.5 | 0.00 | 0.00 | 0.00 | 77 | 1006.4 |
| 20260505113002 | 17 | 222 | 4.8 | 12.9 | 0.00 | 0.00 | 0.00 | 78 | 1006.3 |
| 20260505111001 | 17 | 230 | 3.2 | 9.7 | 0.00 | 0.00 | 0.00 | 79 | 1006.0 |
| 20260505102001 | 16 | 218 | 3.2 | 14.5 | 0.00 | 0.00 | 0.00 | 80 | 1005.2 |
| 20260505101001 | 16 | 239 | 4.8 | 19.3 | 0.00 | 0.00 | 0.00 | 82 | 1005.2 |
| 20260505100002 | 15 | 234 | 4.8 | 19.3 | 0.00 | 0.00 | 0.00 | 83 | 1005.0 |
| 20260505095001 | 15 | 241 | 3.2 | 11.3 | 0.00 | 0.00 | 0.00 | 84 | 1005.1 |
| 20260505094002 | 15 | 242 | 4.8 | 14.5 | 0.00 | 0.00 | 0.00 | 86 | 1004.9 |
| 20260505093001 | 14 | 193 | 1.6 | 14.5 | 0.00 | 0.00 | 0.00 | 87 | 1004.9 |
| 20260505092002 | 14 | 213 | 1.6 | 4.8 | 0.00 | 0.00 | 0.00 | 87 | 1004.8 |
| 20260505091001 | 14 | 211 | 1.6 | 8.0 | 0.00 | 0.00 | 0.00 | 87 | 1004.7 |
| 20260505090001 | 14 | 204 | 3.2 | 9.7 | 0.00 | 0.00 | 0.00 | 87 | 1005.0 |
| 20260505085002 | 14 | 228 | 6.4 | 22.5 | 0.00 | 0.00 | 0.00 | 88 | 1005.1 |
| 20260505084002 | 14 | 176 | 3.2 | 14.5 | 0.00 | 0.00 | 0.00 | 88 | 1005.3 |
| 20260505083002 | 13 | 188 | 3.2 | 8.0 | 0.00 | 0.00 | 0.00 | 88 | 1005.3 |
| 20260505081002 | 14 | 180 | 4.8 | 12.9 | 0.00 | 0.00 | 0.00 | 88 | 1005.5 |
| 20260505080003 | 14 | 190 | 3.2 | 16.1 | 0.00 | 0.00 | 0.00 | 87 | 1005.4 |
| 20260505075002 | 15 | 233 | 1.6 | 4.8 | 0.00 | 0.00 | 0.00 | 86 | 1005.4 |
| 20260505074002 | 15 | 219 | 3.2 | 22.5 | 0.00 | 0.00 | 0.00 | 86 | 1005.5 |
| 20260505073003 | 15 | 187 | 3.2 | 12.9 | 0.00 | 0.00 | 0.00 | 85 | 1005.5 |
| 20260505071002 | 15 | 200 | 1.6 | 14.5 | 0.00 | 0.00 | 0.00 | 83 | 1005.5 |
| 20260505070002 | 15 | 233 | 3.2 | 12.9 | 0.00 | 0.00 | 0.00 | 84 | 1005.5 |
| 20260505064002 | 16 | 196 | 8.0 | 16.1 | 0.00 | 0.00 | 0.00 | 81 | 1006.5 |
| 20260505062003 | 16 | 231 | 4.8 | 19.3 | 0.00 | 0.00 | 0.00 | 79 | 1006.7 |
| 20260505061002 | 16 | 231 | 9.7 | 22.5 | 0.00 | 0.00 | 0.00 | 76 | 1006.6 |
| 20260505060003 | 17 | 226 | 6.4 | 19.3 | 0.00 | 0.00 | 0.00 | 74 | 1006.4 |
| 20260505055002 | 17 | 201 | 4.8 | 14.5 | 0.00 | 0.00 | 0.00 | 71 | 1006.7 |
| 20260505054002 | 17 | 240 | 6.4 | 16.1 | 0.00 | 0.00 | 0.00 | 70 | 1006.5 |
| 20260505053003 | 18 | 238 | 8.0 | 14.5 | 0.00 | 0.00 | 0.00 | 69 | 1006.6 |
| 20260505052003 | 18 | 220 | 6.4 | 24.1 | 0.00 | 0.00 | 0.00 | 69 | 1006.6 |
| 20260505051002 | 18 | 208 | 8.0 | 25.7 | 0.00 | 0.00 | 0.00 | 69 | 1006.5 |
| 20260505041003 | 16 | 219 | 4.8 | 12.9 | 0.00 | 0.00 | 0.00 | 71 | 1006.4 |
| 20260505040004 | 16 | 200 | 3.2 | 8.0 | 0.00 | 0.00 | 0.00 | 70 | 1006.3 |
| 20260505034002 | 16 | 173 | 3.2 | 14.5 | 0.00 | 0.00 | 0.00 | 68 | 1006.5 |
| 20260505033002 | 16 | 200 | 1.6 | 11.3 | 0.00 | 0.00 | 0.00 | 67 | 1006.7 |
| 20260505032003 | 16 | 202 | 3.2 | 9.7 | 0.00 | 0.00 | 0.00 | 66 | 1007.0 |
| 20260505030002 | 16 | 203 | 4.8 | 14.5 | 0.00 | 0.00 | 0.00 | 62 | 1007.3 |
| 20260505025002 | 16 | 214 | 4.8 | 11.3 | 0.00 | 0.00 | 0.00 | 64 | 1007.2 |
| 20260505024002 | 15 | 207 | 3.2 | 8.0 | 0.00 | 0.00 | 0.00 | 65 | 1007.2 |
| 20260505023002 | 15 | 192 | 3.2 | 8.0 | 0.00 | 0.00 | 0.00 | 68 | 1007.1 |
| 20260505022002 | 15 | 191 | 3.2 | 8.0 | 0.00 | 0.00 | 0.00 | 69 | 1007.1 |
| 20260505021003 | 14 | 159 | 1.6 | 4.8 | 0.00 | 0.00 | 0.00 | 71 | 1007.1 |
| 20260505020002 | 14 | 157 | 1.6 | 3.2 | 0.00 | 0.00 | 0.00 | 72 | 1007.1 |
| 20260505015002 | 14 | 200 | 0.0 | 0.0 | 0.00 | 0.00 | 0.00 | 71 | 1007.1 |
| 20260505014003 | 15 | 200 | 0.0 | 3.2 | 0.00 | 0.00 | 0.00 | 71 | 1007.1 |
| 20260505013003 | 15 | 200 | 1.6 | 3.2 | 0.00 | 0.00 | 0.00 | 70 | 1007.2 |
| 20260505012002 | 15 | 200 | 1.6 | 1.6 | 0.00 | 0.00 | 0.00 | 70 | 1007.3 |
| 20260505011002 | 16 | 200 | 0.0 | 0.0 | 0.00 | 0.00 | 0.00 | 69 | 1007.2 |
| 20260505010002 | 16 | 200 | 0.0 | 3.2 | 0.00 | 0.00 | 0.00 | 66 | 1007.1 |
| 20260505005002 | 17 | 200 | 1.6 | 3.2 | 0.00 | 0.00 | 0.00 | 65 | 1007.0 |
| 20260505003002 | 18 | 200 | 1.6 | 3.2 | 0.00 | 0.00 | 0.00 | 60 | 1007.0 |
| 20260505001003 | 18 | 171 | 1.6 | 4.8 | 0.00 | 0.03 | 0.00 | 56 | 1007.1 |
| 20260504235002 | 20 | 223 | 1.6 | 4.8 | 0.00 | 0.03 | 0.00 | 54 | 1007.1 |
| 20260504234002 | 20 | 204 | 3.2 | 4.8 | 0.00 | 0.03 | 0.00 | 52 | 1007.2 |
| 20260504233003 | 20 | 258 | 3.2 | 11.3 | 0.00 | 0.03 | 0.00 | 50 | 1007.2 |
| 20260504232003 | 21 | 247 | 3.2 | 8.0 | 0.00 | 0.03 | 0.00 | 49 | 1007.3 |
| 20260504231002 | 21 | 245 | 4.8 | 14.5 | 0.00 | 0.03 | 0.00 | 46 | 1007.3 |
| 20260504230002 | 21 | 219 | 3.2 | 11.3 | 0.00 | 0.05 | 0.00 | 46 | 1007.3 |
| 20260504225002 | 21 | 236 | 3.2 | 16.1 | 0.00 | 0.05 | 0.00 | 46 | 1007.3 |
| 20260504224002 | 21 | 242 | 4.8 | 16.1 | 0.00 | 0.05 | 0.00 | 43 | 1007.4 |
| 20260504223003 | 22 | 232 | 4.8 | 16.1 | 0.00 | 0.08 | 0.00 | 41 | 1007.3 |
| 20260504222002 | 22 | 241 | 4.8 | 19.3 | 0.00 | 0.08 | 0.00 | 41 | 1007.4 |
| 20260504221004 | 22 | 300 | 3.2 | 19.3 | 0.00 | 0.08 | 0.00 | 47 | 1007.5 |
| 20260504215003 | 22 | 229 | 9.7 | 22.5 | 0.00 | 0.08 | 0.00 | 40 | 1007.6 |
| 20260504214003 | 22 | 250 | 4.8 | 22.5 | 0.00 | 0.08 | 0.00 | 42 | 1007.6 |
| 20260504213002 | 23 | 260 | 11.3 | 32.2 | 0.00 | 0.08 | 0.00 | 41 | 1007.5 |
| 20260504212003 | 23 | 230 | 4.8 | 22.5 | 0.00 | 0.08 | 0.00 | 43 | 1007.5 |
| 20260504211002 | 23 | 240 | 8.0 | 20.9 | 0.00 | 0.08 | 0.00 | 42 | 1007.6 |
| 20260504210004 | 23 | 237 | 9.7 | 22.5 | 0.00 | 0.08 | 0.00 | 43 | 1007.5 |
| 20260504205003 | 23 | 230 | 8.0 | 16.1 | 0.00 | 0.08 | 0.00 | 43 | 1007.6 |
| 20260504204003 | 23 | 243 | 12.9 | 27.4 | 0.00 | 0.08 | 0.00 | 44 | 1007.6 |
| 20260504203003 | 23 | 268 | 8.0 | 19.3 | 0.00 | 0.08 | 0.00 | 45 | 1007.6 |
| 20260504202003 | 23 | 242 | 9.7 | 27.4 | 0.00 | 0.08 | 0.00 | 42 | 1007.7 |
| 20260504201002 | 23 | 253 | 9.7 | 20.9 | 0.00 | 0.08 | 0.00 | 44 | 1007.8 |
| 20260504200003 | 23 | 223 | 4.8 | 20.9 | 0.00 | 0.08 | 0.00 | 48 | 1008.0 |
| 20260504195002 | 22 | 236 | 8.0 | 20.9 | 0.00 | 0.08 | 0.00 | 47 | 1008.3 |
| 20260504194004 | 22 | 228 | 11.3 | 20.9 | 0.00 | 0.08 | 0.00 | 46 | 1008.6 |
| 20260504193003 | 22 | 216 | 9.7 | 24.1 | 0.00 | 0.08 | 0.00 | 46 | 1008.7 |
| 20260504192003 | 22 | 242 | 9.7 | 20.9 | 0.00 | 0.08 | 0.00 | 48 | 1008.7 |
| 20260504191003 | 22 | 245 | 8.0 | 19.3 | 0.00 | 0.08 | 0.00 | 50 | 1008.9 |
| 20260504190003 | 22 | 230 | 8.0 | 24.1 | 0.00 | 0.08 | 0.00 | 51 | 1009.0 |
| 20260504185003 | 22 | 207 | 8.0 | 24.1 | 0.00 | 0.08 | 0.00 | 52 | 1009.2 |
| 20260504184003 | 21 | 225 | 4.8 | 24.1 | 0.00 | 0.08 | 0.00 | 53 | 1009.2 |
| 20260504183003 | 21 | 203 | 8.0 | 20.9 | 0.00 | 0.08 | 0.00 | 54 | 1009.3 |
| 20260504182003 | 21 | 249 | 9.7 | 27.4 | 0.00 | 0.08 | 0.00 | 52 | 1009.5 |
| 20260504180003 | 21 | 257 | 8.0 | 20.9 | 0.00 | 0.08 | 0.00 | 57 | 1009.6 |
| 20260504175003 | 20 | 214 | 11.3 | 20.9 | 0.00 | 0.08 | 0.00 | 53 | 1009.8 |
| 20260504174003 | 20 | 233 | 11.3 | 24.1 | 0.00 | 0.08 | 0.00 | 54 | 1009.9 |
| 20260504173003 | 20 | 237 | 9.7 | 32.2 | 0.00 | 0.08 | 0.00 | 54 | 1010.0 |
| 20260504172003 | 20 | 227 | 8.0 | 24.1 | 0.00 | 0.08 | 0.00 | 55 | 1010.1 |
| 20260504171003 | 20 | 209 | 11.3 | 29.0 | 0.00 | 0.08 | 0.00 | 54 | 1010.4 |
| 20260504141003 | 17 | 245 | 9.7 | 19.3 | 0.00 | 0.08 | 0.00 | 57 | 1010.9 |